owner,sensor,date,latitude,longitude,vertical_datum,sea_water_practical_salinity,qcFlag 
TCOON,ioos:station:TCOON:043:1,2014-09-01T21:30:00Z,27.8838,-97.5332,0.0,25.2,1111122 
TCOON,ioos:station:TCOON:043:1,2014-09-01T22:30:00Z,27.8838,-97.5332,0.0,25.6,1111122 
TCOON,ioos:station:TCOON:043:1,2014-09-01T23:30:00Z,27.8838,-97.5332,0.0,25.2,1111122 
TCOON,ioos:station:TCOON:043:1,2014-09-02T00:30:00Z,27.8838,-97.5332,0.0,25.1,1111122 
TCOON,ioos:station:TCOON:043:1,2014-09-02T01:30:00Z,27.8838,-97.5332,0.0,25.2,1111122 
TCOON,ioos:station:TCOON:043:1,2014-09-02T02:30:00Z,27.8838,-97.5332,0.0,25.5,1111122 
TCOON,ioos:station:TCOON:043:1,2014-09-02T03:30:00Z,27.8838,-97.5332,0.0,25.4,1111122 
TCOON,ioos:station:TCOON:043:1,2014-09-02T04:30:00Z,27.8838,-97.5332,0.0,25.4,1111122 
TCOON,ioos:station:TCOON:043:1,2014-09-02T05:30:00Z,27.8838,-97.5332,0.0,25.4,1111122 
TCOON,ioos:station:TCOON:043:1,2014-09-02T07:00:00Z,27.8838,-97.5332,0.0,25.5,1111122 
TCOON,ioos:station:TCOON:043:1,2014-09-02T07:30:00Z,27.8838,-97.5332,0.0,25.2,1111122 
TCOON,ioos:station:TCOON:043:1,2014-09-02T08:30:00Z,27.8838,-97.5332,0.0,25.4,1111122 
TCOON,ioos:station:TCOON:043:1,2014-09-02T09:30:00Z,27.8838,-97.5332,0.0,25.6,1111122 
TCOON,ioos:station:TCOON:043:1,2014-09-02T10:30:00Z,27.8838,-97.5332,0.0,26.0,1111122 
TCOON,ioos:station:TCOON:043:1,2014-09-02T11:30:00Z,27.8838,-97.5332,0.0,25.9,1111122 
TCOON,ioos:station:TCOON:043:1,2014-09-02T12:30:00Z,27.8838,-97.5332,0.0,26.4,1111122 
TCOON,ioos:station:TCOON:043:1,2014-09-02T13:30:00Z,27.8838,-97.5332,0.0,26.2,1111122 
TCOON,ioos:station:TCOON:043:1,2014-09-02T14:30:00Z,27.8838,-97.5332,0.0,26.2,1111122 
TCOON,ioos:station:TCOON:043:1,2014-09-02T15:30:00Z,27.8838,-97.5332,0.0,26.3,1111122 
TCOON,ioos:station:TCOON:043:1,2014-09-02T16:30:00Z,27.8838,-97.5332,0.0,26.4,1111122 
TCOON,ioos:station:TCOON:043:1,2014-09-02T17:30:00Z,27.8838,-97.5332,0.0,26.3,1111122 
TCOON,ioos:station:TCOON:043:1,2014-09-02T18:30:00Z,27.8838,-97.5332,0.0,26.5,1111122 
TCOON,ioos:station:TCOON:043:1,2014-09-02T19:30:00Z,27.8838,-97.5332,0.0,26.7,1111122 
TCOON,ioos:station:TCOON:043:1,2014-09-02T20:30:00Z,27.8838,-97.5332,0.0,26.8,1111122 
TCOON,ioos:station:TCOON:043:1,2014-09-02T21:30:00Z,27.8838,-97.5332,0.0,26.7,1111122 
TCOON,ioos:station:TCOON:043:1,2014-09-02T23:00:00Z,27.8838,-97.5332,0.0,26.6,1111122 
TCOON,ioos:station:TCOON:043:1,2014-09-03T00:30:00Z,27.8838,-97.5332,0.0,26.7,1111122 
TCOON,ioos:station:TCOON:043:1,2014-09-03T01:30:00Z,27.8838,-97.5332,0.0,26.9,1111122 
TCOON,ioos:station:TCOON:043:1,2014-09-03T02:30:00Z,27.8838,-97.5332,0.0,26.9,1111122 
TCOON,ioos:station:TCOON:043:1,2014-09-03T03:30:00Z,27.8838,-97.5332,0.0,27.0,1111122 
TCOON,ioos:station:TCOON:043:1,2014-09-03T04:30:00Z,27.8838,-97.5332,0.0,27.1,1111122 
TCOON,ioos:station:TCOON:043:1,2014-09-03T05:30:00Z,27.8838,-97.5332,0.0,26.6,1111122 
TCOON,ioos:station:TCOON:043:1,2014-09-03T06:30:00Z,27.8838,-97.5332,0.0,26.8,1111122 
TCOON,ioos:station:TCOON:043:1,2014-09-03T07:30:00Z,27.8838,-97.5332,0.0,27.5,1111122 
TCOON,ioos:station:TCOON:043:1,2014-09-03T08:30:00Z,27.8838,-97.5332,0.0,27.6,1111122 
TCOON,ioos:station:TCOON:043:1,2014-09-03T09:30:00Z,27.8838,-97.5332,0.0,27.7,1111122 
TCOON,ioos:station:TCOON:043:1,2014-09-03T10:30:00Z,27.8838,-97.5332,0.0,27.3,1111122 
TCOON,ioos:station:TCOON:043:1,2014-09-03T11:30:00Z,27.8838,-97.5332,0.0,27.6,1111122 
TCOON,ioos:station:TCOON:043:1,2014-09-03T12:30:00Z,27.8838,-97.5332,0.0,28.0,1111122 
TCOON,ioos:station:TCOON:043:1,2014-09-03T13:30:00Z,27.8838,-97.5332,0.0,27.6,1111122 
TCOON,ioos:station:TCOON:043:1,2014-09-03T14:30:00Z,27.8838,-97.5332,0.0,28.1,1111122 
TCOON,ioos:station:TCOON:043:1,2014-09-03T15:30:00Z,27.8838,-97.5332,0.0,27.9,1111122 
TCOON,ioos:station:TCOON:043:1,2014-09-03T16:30:00Z,27.8838,-97.5332,0.0,34.4,1111122 
TCOON,ioos:station:TCOON:043:1,2014-09-03T17:30:00Z,27.8838,-97.5332,0.0,34.7,1111122 
TCOON,ioos:station:TCOON:043:1,2014-09-03T18:30:00Z,27.8838,-97.5332,0.0,33.7,1111122 
TCOON,ioos:station:TCOON:043:1,2014-09-03T19:30:00Z,27.8838,-97.5332,0.0,34.9,1111122 
TCOON,ioos:station:TCOON:043:1,2014-09-03T20:30:00Z,27.8838,-97.5332,0.0,34.8,1111122 
TCOON,ioos:station:TCOON:043:1,2014-09-03T21:30:00Z,27.8838,-97.5332,0.0,34.9,1111122 
TCOON,ioos:station:TCOON:043:1,2014-09-03T22:30:00Z,27.8838,-97.5332,0.0,34.9,1111122 
TCOON,ioos:station:TCOON:043:1,2014-09-03T23:30:00Z,27.8838,-97.5332,0.0,34.9,1111122 
TCOON,ioos:station:TCOON:043:1,2014-09-04T00:30:00Z,27.8838,-97.5332,0.0,33.9,1111122 
TCOON,ioos:station:TCOON:043:1,2014-09-04T01:30:00Z,27.8838,-97.5332,0.0,34.5,1111122 
TCOON,ioos:station:TCOON:043:1,2014-09-04T02:30:00Z,27.8838,-97.5332,0.0,34.2,1111122 
TCOON,ioos:station:TCOON:043:1,2014-09-04T03:30:00Z,27.8838,-97.5332,0.0,34.8,1111122 
TCOON,ioos:station:TCOON:043:1,2014-09-04T04:30:00Z,27.8838,-97.5332,0.0,34.2,1111122 
TCOON,ioos:station:TCOON:043:1,2014-09-04T05:30:00Z,27.8838,-97.5332,0.0,33.9,1111122 
TCOON,ioos:station:TCOON:043:1,2014-09-04T06:30:00Z,27.8838,-97.5332,0.0,34.7,1111122 
TCOON,ioos:station:TCOON:043:1,2014-09-04T07:30:00Z,27.8838,-97.5332,0.0,34.0,1111122 
TCOON,ioos:station:TCOON:043:1,2014-09-04T08:30:00Z,27.8838,-97.5332,0.0,33.8,1111122 
TCOON,ioos:station:TCOON:043:1,2014-09-04T09:30:00Z,27.8838,-97.5332,0.0,33.8,1111122 
TCOON,ioos:station:TCOON:043:1,2014-09-04T10:30:00Z,27.8838,-97.5332,0.0,35.1,1111122 
TCOON,ioos:station:TCOON:043:1,2014-09-04T11:30:00Z,27.8838,-97.5332,0.0,33.5,1111122 
TCOON,ioos:station:TCOON:043:1,2014-09-04T12:30:00Z,27.8838,-97.5332,0.0,35.5,1111122 
TCOON,ioos:station:TCOON:043:1,2014-09-04T13:30:00Z,27.8838,-97.5332,0.0,34.5,1111122 
TCOON,ioos:station:TCOON:043:1,2014-09-04T14:30:00Z,27.8838,-97.5332,0.0,33.0,1111122 
TCOON,ioos:station:TCOON:043:1,2014-09-04T15:30:00Z,27.8838,-97.5332,0.0,35.5,1111122 
TCOON,ioos:station:TCOON:043:1,2014-09-04T16:30:00Z,27.8838,-97.5332,0.0,35.4,1111122 
TCOON,ioos:station:TCOON:043:1,2014-09-04T17:30:00Z,27.8838,-97.5332,0.0,35.1,1111122 
TCOON,ioos:station:TCOON:043:1,2014-09-04T18:30:00Z,27.8838,-97.5332,0.0,34.6,1111122 
TCOON,ioos:station:TCOON:043:1,2014-09-04T19:30:00Z,27.8838,-97.5332,0.0,35.0,1111122 
TCOON,ioos:station:TCOON:043:1,2014-09-04T20:30:00Z,27.8838,-97.5332,0.0,34.5,1111122 
TCOON,ioos:station:TCOON:043:1,2014-09-04T21:30:00Z,27.8838,-97.5332,0.0,34.6,1111122 
TCOON,ioos:station:TCOON:043:1,2014-09-04T22:30:00Z,27.8838,-97.5332,0.0,34.7,1111122 
TCOON,ioos:station:TCOON:043:1,2014-09-04T23:30:00Z,27.8838,-97.5332,0.0,34.7,1111122 
TCOON,ioos:station:TCOON:043:1,2014-09-05T00:30:00Z,27.8838,-97.5332,0.0,34.7,1111122 
TCOON,ioos:station:TCOON:043:1,2014-09-05T01:30:00Z,27.8838,-97.5332,0.0,33.7,1111122 
TCOON,ioos:station:TCOON:043:1,2014-09-05T02:30:00Z,27.8838,-97.5332,0.0,34.6,1111122 
TCOON,ioos:station:TCOON:043:1,2014-09-05T03:30:00Z,27.8838,-97.5332,0.0,33.6,1111122 
TCOON,ioos:station:TCOON:043:1,2014-09-05T04:30:00Z,27.8838,-97.5332,0.0,35.0,1111122 
TCOON,ioos:station:TCOON:043:1,2014-09-05T05:30:00Z,27.8838,-97.5332,0.0,34.7,1111122 
TCOON,ioos:station:TCOON:043:1,2014-09-05T07:00:00Z,27.8838,-97.5332,0.0,35.0,1111122 
TCOON,ioos:station:TCOON:043:1,2014-09-05T07:30:00Z,27.8838,-97.5332,0.0,35.7,1111122 
TCOON,ioos:station:TCOON:043:1,2014-09-05T08:30:00Z,27.8838,-97.5332,0.0,34.8,1111122 
TCOON,ioos:station:TCOON:043:1,2014-09-05T11:30:00Z,27.8838,-97.5332,0.0,34.2,1111122 
TCOON,ioos:station:TCOON:043:1,2014-09-05T12:30:00Z,27.8838,-97.5332,0.0,35.6,1111122 
TCOON,ioos:station:TCOON:043:1,2014-09-05T13:30:00Z,27.8838,-97.5332,0.0,35.0,1111122 
TCOON,ioos:station:TCOON:043:1,2014-09-05T14:30:00Z,27.8838,-97.5332,0.0,35.5,1111122 
TCOON,ioos:station:TCOON:043:1,2014-09-05T15:30:00Z,27.8838,-97.5332,0.0,36.7,1111122 
TCOON,ioos:station:TCOON:043:1,2014-09-05T16:30:00Z,27.8838,-97.5332,0.0,36.3,1111122 
TCOON,ioos:station:TCOON:043:1,2014-09-05T17:30:00Z,27.8838,-97.5332,0.0,17.7,1111122 
TCOON,ioos:station:TCOON:043:1,2014-09-05T18:30:00Z,27.8838,-97.5332,0.0,8.2,1111122 
TCOON,ioos:station:TCOON:043:1,2014-09-05T19:30:00Z,27.8838,-97.5332,0.0,11.6,1111122 
TCOON,ioos:station:TCOON:043:1,2014-09-05T20:30:00Z,27.8838,-97.5332,0.0,18.2,1111122 
TCOON,ioos:station:TCOON:043:1,2014-09-05T21:30:00Z,27.8838,-97.5332,0.0,34.3,1111122 
TCOON,ioos:station:TCOON:043:1,2014-09-05T22:30:00Z,27.8838,-97.5332,0.0,33.8,1111122 
TCOON,ioos:station:TCOON:043:1,2014-09-05T23:30:00Z,27.8838,-97.5332,0.0,34.1,1111122 
TCOON,ioos:station:TCOON:043:1,2014-09-06T00:30:00Z,27.8838,-97.5332,0.0,34.9,1111122 
TCOON,ioos:station:TCOON:043:1,2014-09-06T01:30:00Z,27.8838,-97.5332,0.0,33.6,1111122 
TCOON,ioos:station:TCOON:043:1,2014-09-06T02:30:00Z,27.8838,-97.5332,0.0,33.8,1111122 
TCOON,ioos:station:TCOON:043:1,2014-09-06T03:30:00Z,27.8838,-97.5332,0.0,34.3,1111122 
TCOON,ioos:station:TCOON:043:1,2014-09-06T04:30:00Z,27.8838,-97.5332,0.0,31.8,1111122 
TCOON,ioos:station:TCOON:043:1,2014-09-06T05:30:00Z,27.8838,-97.5332,0.0,32.4,1111122 
TCOON,ioos:station:TCOON:043:1,2014-09-06T06:30:00Z,27.8838,-97.5332,0.0,32.4,1111122 
TCOON,ioos:station:TCOON:043:1,2014-09-06T07:30:00Z,27.8838,-97.5332,0.0,32.8,1111122 
TCOON,ioos:station:TCOON:043:1,2014-09-06T08:30:00Z,27.8838,-97.5332,0.0,31.9,1111122 
TCOON,ioos:station:TCOON:043:1,2014-09-06T09:30:00Z,27.8838,-97.5332,0.0,32.0,1111122 
TCOON,ioos:station:TCOON:043:1,2014-09-06T10:30:00Z,27.8838,-97.5332,0.0,31.7,1111122 
TCOON,ioos:station:TCOON:043:1,2014-09-06T11:30:00Z,27.8838,-97.5332,0.0,32.0,1111122 
TCOON,ioos:station:TCOON:043:1,2014-09-06T12:30:00Z,27.8838,-97.5332,0.0,31.9,1111122 
TCOON,ioos:station:TCOON:043:1,2014-09-06T13:30:00Z,27.8838,-97.5332,0.0,31.1,1111122 
TCOON,ioos:station:TCOON:043:1,2014-09-06T14:30:00Z,27.8838,-97.5332,0.0,31.4,1111122 
TCOON,ioos:station:TCOON:043:1,2014-09-06T15:30:00Z,27.8838,-97.5332,0.0,30.6,1111122 
TCOON,ioos:station:TCOON:043:1,2014-09-06T16:30:00Z,27.8838,-97.5332,0.0,28.7,1111122 
TCOON,ioos:station:TCOON:043:1,2014-09-06T17:30:00Z,27.8838,-97.5332,0.0,29.8,1111122 
TCOON,ioos:station:TCOON:043:1,2014-09-06T18:30:00Z,27.8838,-97.5332,0.0,28.2,1111122 
TCOON,ioos:station:TCOON:043:1,2014-09-06T19:30:00Z,27.8838,-97.5332,0.0,26.5,1111122 
TCOON,ioos:station:TCOON:043:1,2014-09-06T20:30:00Z,27.8838,-97.5332,0.0,27.0,1111122 
TCOON,ioos:station:TCOON:043:1,2014-09-06T21:30:00Z,27.8838,-97.5332,0.0,27.9,1111122 
TCOON,ioos:station:TCOON:043:1,2014-09-06T22:30:00Z,27.8838,-97.5332,0.0,28.8,1111122 
TCOON,ioos:station:TCOON:043:1,2014-09-06T23:30:00Z,27.8838,-97.5332,0.0,28.6,1111122 
TCOON,ioos:station:TCOON:043:1,2014-09-07T00:30:00Z,27.8838,-97.5332,0.0,29.3,1111122 
TCOON,ioos:station:TCOON:043:1,2014-09-07T01:30:00Z,27.8838,-97.5332,0.0,29.2,1111122 
TCOON,ioos:station:TCOON:043:1,2014-09-07T02:30:00Z,27.8838,-97.5332,0.0,28.6,1111122 
TCOON,ioos:station:TCOON:043:1,2014-09-07T03:30:00Z,27.8838,-97.5332,0.0,28.2,1111122 
TCOON,ioos:station:TCOON:043:1,2014-09-07T04:30:00Z,27.8838,-97.5332,0.0,25.7,1111122 
TCOON,ioos:station:TCOON:043:1,2014-09-07T05:30:00Z,27.8838,-97.5332,0.0,27.6,1111122 
TCOON,ioos:station:TCOON:043:1,2014-09-07T06:30:00Z,27.8838,-97.5332,0.0,28.6,1111122 
TCOON,ioos:station:TCOON:043:1,2014-09-07T07:30:00Z,27.8838,-97.5332,0.0,28.2,1111122 
TCOON,ioos:station:TCOON:043:1,2014-09-07T08:30:00Z,27.8838,-97.5332,0.0,28.9,1111122 
TCOON,ioos:station:TCOON:043:1,2014-09-07T09:30:00Z,27.8838,-97.5332,0.0,28.9,1111122 
TCOON,ioos:station:TCOON:043:1,2014-09-07T10:30:00Z,27.8838,-97.5332,0.0,28.8,1111122 
TCOON,ioos:station:TCOON:043:1,2014-09-07T11:30:00Z,27.8838,-97.5332,0.0,27.6,1111122 
TCOON,ioos:station:TCOON:043:1,2014-09-07T12:30:00Z,27.8838,-97.5332,0.0,28.4,1111122 
TCOON,ioos:station:TCOON:043:1,2014-09-07T13:30:00Z,27.8838,-97.5332,0.0,28.1,1111122 
TCOON,ioos:station:TCOON:043:1,2014-09-07T14:30:00Z,27.8838,-97.5332,0.0,27.3,1111122 
TCOON,ioos:station:TCOON:043:1,2014-09-07T15:30:00Z,27.8838,-97.5332,0.0,23.3,1111122 
TCOON,ioos:station:TCOON:043:1,2014-09-07T16:30:00Z,27.8838,-97.5332,0.0,25.9,1111122 
TCOON,ioos:station:TCOON:043:1,2014-09-07T17:30:00Z,27.8838,-97.5332,0.0,24.9,1111122 
TCOON,ioos:station:TCOON:043:1,2014-09-07T18:30:00Z,27.8838,-97.5332,0.0,24.7,1111122 
TCOON,ioos:station:TCOON:043:1,2014-09-07T19:30:00Z,27.8838,-97.5332,0.0,24.5,1111122 
TCOON,ioos:station:TCOON:043:1,2014-09-07T20:30:00Z,27.8838,-97.5332,0.0,23.8,1111122 
TCOON,ioos:station:TCOON:043:1,2014-09-07T21:30:00Z,27.8838,-97.5332,0.0,23.6,1111122 
TCOON,ioos:station:TCOON:043:1,2014-09-07T22:30:00Z,27.8838,-97.5332,0.0,24.0,1111122 
TCOON,ioos:station:TCOON:043:1,2014-09-07T23:30:00Z,27.8838,-97.5332,0.0,23.4,1111122 
TCOON,ioos:station:TCOON:043:1,2014-09-08T00:30:00Z,27.8838,-97.5332,0.0,22.6,1111122 
TCOON,ioos:station:TCOON:043:1,2014-09-08T01:30:00Z,27.8838,-97.5332,0.0,22.9,1111122 
TCOON,ioos:station:TCOON:043:1,2014-09-08T02:30:00Z,27.8838,-97.5332,0.0,23.6,1111122 
TCOON,ioos:station:TCOON:043:1,2014-09-08T03:30:00Z,27.8838,-97.5332,0.0,25.3,1111122 
TCOON,ioos:station:TCOON:043:1,2014-09-08T04:30:00Z,27.8838,-97.5332,0.0,25.2,1111122 
TCOON,ioos:station:TCOON:043:1,2014-09-08T05:30:00Z,27.8838,-97.5332,0.0,25.3,1111122 
TCOON,ioos:station:TCOON:043:1,2014-09-08T07:00:00Z,27.8838,-97.5332,0.0,25.6,1111122 
TCOON,ioos:station:TCOON:043:1,2014-09-08T07:30:00Z,27.8838,-97.5332,0.0,26.5,1111122 
TCOON,ioos:station:TCOON:043:1,2014-09-08T08:30:00Z,27.8838,-97.5332,0.0,26.7,1111122 
TCOON,ioos:station:TCOON:043:1,2014-09-08T09:30:00Z,27.8838,-97.5332,0.0,26.4,1111122 
TCOON,ioos:station:TCOON:043:1,2014-09-08T10:30:00Z,27.8838,-97.5332,0.0,26.5,1111122 
TCOON,ioos:station:TCOON:043:1,2014-09-08T11:30:00Z,27.8838,-97.5332,0.0,26.4,1111122 
TCOON,ioos:station:TCOON:043:1,2014-09-08T12:30:00Z,27.8838,-97.5332,0.0,24.7,1111122 
TCOON,ioos:station:TCOON:043:1,2014-09-08T13:30:00Z,27.8838,-97.5332,0.0,25.1,1111122 
TCOON,ioos:station:TCOON:043:1,2014-09-08T14:30:00Z,27.8838,-97.5332,0.0,24.7,1111122 
TCOON,ioos:station:TCOON:043:1,2014-09-08T15:30:00Z,27.8838,-97.5332,0.0,22.1,1111122 
TCOON,ioos:station:TCOON:043:1,2014-09-08T16:30:00Z,27.8838,-97.5332,0.0,23.4,1111122 
TCOON,ioos:station:TCOON:043:1,2014-09-08T17:30:00Z,27.8838,-97.5332,0.0,23.4,1111122 
TCOON,ioos:station:TCOON:043:1,2014-09-08T18:30:00Z,27.8838,-97.5332,0.0,22.5,1111122 
TCOON,ioos:station:TCOON:043:1,2014-09-08T19:30:00Z,27.8838,-97.5332,0.0,22.7,1111122 
TCOON,ioos:station:TCOON:043:1,2014-09-08T20:30:00Z,27.8838,-97.5332,0.0,22.6,1111122 
TCOON,ioos:station:TCOON:043:1,2014-09-08T21:30:00Z,27.8838,-97.5332,0.0,23.4,1111122 
TCOON,ioos:station:TCOON:043:1,2014-09-10T02:00:00Z,27.8838,-97.5332,0.0,28.9,1111122 
TCOON,ioos:station:TCOON:043:1,2014-09-10T02:30:00Z,27.8838,-97.5332,0.0,28.6,1111122 
TCOON,ioos:station:TCOON:043:1,2014-09-10T03:30:00Z,27.8838,-97.5332,0.0,29.2,1111122 
TCOON,ioos:station:TCOON:043:1,2014-09-10T04:30:00Z,27.8838,-97.5332,0.0,28.8,1111122 
TCOON,ioos:station:TCOON:043:1,2014-09-10T05:30:00Z,27.8838,-97.5332,0.0,29.2,1111122 
TCOON,ioos:station:TCOON:043:1,2014-09-10T07:00:00Z,27.8838,-97.5332,0.0,27.6,1111122 
TCOON,ioos:station:TCOON:043:1,2014-09-10T07:30:00Z,27.8838,-97.5332,0.0,26.6,1111122 
TCOON,ioos:station:TCOON:043:1,2014-09-10T08:30:00Z,27.8838,-97.5332,0.0,24.0,1111122 
TCOON,ioos:station:TCOON:043:1,2014-09-10T11:30:00Z,27.8838,-97.5332,0.0,23.2,1111122 
TCOON,ioos:station:TCOON:043:1,2014-09-10T12:30:00Z,27.8838,-97.5332,0.0,23.2,1111122 
TCOON,ioos:station:TCOON:043:1,2014-09-10T13:30:00Z,27.8838,-97.5332,0.0,23.3,1111122 
TCOON,ioos:station:TCOON:043:1,2014-09-10T14:30:00Z,27.8838,-97.5332,0.0,23.3,1111122 
TCOON,ioos:station:TCOON:043:1,2014-09-10T15:30:00Z,27.8838,-97.5332,0.0,23.3,1111122 
TCOON,ioos:station:TCOON:043:1,2014-09-10T16:30:00Z,27.8838,-97.5332,0.0,22.6,1111122 
TCOON,ioos:station:TCOON:043:1,2014-09-10T17:30:00Z,27.8838,-97.5332,0.0,22.1,1111122 
TCOON,ioos:station:TCOON:043:1,2014-09-10T18:30:00Z,27.8838,-97.5332,0.0,22.1,1111122 
TCOON,ioos:station:TCOON:043:1,2014-09-10T19:30:00Z,27.8838,-97.5332,0.0,21.1,1111122 
TCOON,ioos:station:TCOON:043:1,2014-09-10T20:30:00Z,27.8838,-97.5332,0.0,21.5,1111122 
TCOON,ioos:station:TCOON:043:1,2014-09-10T21:30:00Z,27.8838,-97.5332,0.0,21.7,1111122 
TCOON,ioos:station:TCOON:043:1,2014-09-10T22:30:00Z,27.8838,-97.5332,0.0,21.8,1111122 
TCOON,ioos:station:TCOON:043:1,2014-09-10T23:30:00Z,27.8838,-97.5332,0.0,22.1,1111122 
TCOON,ioos:station:TCOON:043:1,2014-09-11T00:30:00Z,27.8838,-97.5332,0.0,22.3,1111122 
TCOON,ioos:station:TCOON:043:1,2014-09-11T01:30:00Z,27.8838,-97.5332,0.0,22.9,1111122 
TCOON,ioos:station:TCOON:043:1,2014-09-11T02:30:00Z,27.8838,-97.5332,0.0,22.9,1111122 
TCOON,ioos:station:TCOON:043:1,2014-09-11T03:30:00Z,27.8838,-97.5332,0.0,25.8,1111122 
TCOON,ioos:station:TCOON:043:1,2014-09-11T04:30:00Z,27.8838,-97.5332,0.0,27.2,1111122 
TCOON,ioos:station:TCOON:043:1,2014-09-11T05:30:00Z,27.8838,-97.5332,0.0,28.5,1111122 
TCOON,ioos:station:TCOON:043:1,2014-09-11T08:00:00Z,27.8838,-97.5332,0.0,29.1,1111122 
TCOON,ioos:station:TCOON:043:1,2014-09-11T08:30:00Z,27.8838,-97.5332,0.0,28.8,1111122 
TCOON,ioos:station:TCOON:043:1,2014-09-11T09:30:00Z,27.8838,-97.5332,0.0,27.2,1111122 
TCOON,ioos:station:TCOON:043:1,2014-09-11T10:30:00Z,27.8838,-97.5332,0.0,26.2,1111122 
TCOON,ioos:station:TCOON:043:1,2014-09-11T11:30:00Z,27.8838,-97.5332,0.0,25.6,1111122 
TCOON,ioos:station:TCOON:043:1,2014-09-12T11:30:00Z,27.8838,-97.5332,0.0,26.7,1111122 
TCOON,ioos:station:TCOON:043:1,2014-09-12T12:30:00Z,27.8838,-97.5332,0.0,26.1,1111122 
TCOON,ioos:station:TCOON:043:1,2014-09-12T13:30:00Z,27.8838,-97.5332,0.0,25.0,1111122 
TCOON,ioos:station:TCOON:043:1,2014-09-12T14:30:00Z,27.8838,-97.5332,0.0,24.3,1111122 
TCOON,ioos:station:TCOON:043:1,2014-09-12T15:30:00Z,27.8838,-97.5332,0.0,24.3,1111122 
TCOON,ioos:station:TCOON:043:1,2014-09-12T16:30:00Z,27.8838,-97.5332,0.0,24.4,1111122 
TCOON,ioos:station:TCOON:043:1,2014-09-12T17:30:00Z,27.8838,-97.5332,0.0,23.5,1111122 
TCOON,ioos:station:TCOON:043:1,2014-09-12T18:30:00Z,27.8838,-97.5332,0.0,21.9,1111122 
TCOON,ioos:station:TCOON:043:1,2014-09-12T19:30:00Z,27.8838,-97.5332,0.0,21.7,1111122 
TCOON,ioos:station:TCOON:043:1,2014-09-12T20:30:00Z,27.8838,-97.5332,0.0,22.2,1111122 
TCOON,ioos:station:TCOON:043:1,2014-09-12T21:30:00Z,27.8838,-97.5332,0.0,21.9,1111122 
TCOON,ioos:station:TCOON:043:1,2014-09-12T22:30:00Z,27.8838,-97.5332,0.0,22.0,1111122 
TCOON,ioos:station:TCOON:043:1,2014-09-12T23:30:00Z,27.8838,-97.5332,0.0,21.6,1111122 
TCOON,ioos:station:TCOON:043:1,2014-09-13T00:30:00Z,27.8838,-97.5332,0.0,21.3,1111122 
TCOON,ioos:station:TCOON:043:1,2014-09-13T01:30:00Z,27.8838,-97.5332,0.0,21.0,1111122 
TCOON,ioos:station:TCOON:043:1,2014-09-13T02:30:00Z,27.8838,-97.5332,0.0,21.1,1111122 
TCOON,ioos:station:TCOON:043:1,2014-09-13T03:30:00Z,27.8838,-97.5332,0.0,20.6,1111122 
TCOON,ioos:station:TCOON:043:1,2014-09-13T04:30:00Z,27.8838,-97.5332,0.0,20.1,1111122 
TCOON,ioos:station:TCOON:043:1,2014-09-13T05:30:00Z,27.8838,-97.5332,0.0,20.2,1111122 
TCOON,ioos:station:TCOON:043:1,2014-09-13T06:30:00Z,27.8838,-97.5332,0.0,19.6,1111122 
TCOON,ioos:station:TCOON:043:1,2014-09-13T07:30:00Z,27.8838,-97.5332,0.0,20.1,1111122 
TCOON,ioos:station:TCOON:043:1,2014-09-13T08:30:00Z,27.8838,-97.5332,0.0,20.4,1111122 
TCOON,ioos:station:TCOON:043:1,2014-09-13T09:30:00Z,27.8838,-97.5332,0.0,20.4,1111122 
TCOON,ioos:station:TCOON:043:1,2014-09-13T10:30:00Z,27.8838,-97.5332,0.0,20.1,1111122 
TCOON,ioos:station:TCOON:043:1,2014-09-13T11:30:00Z,27.8838,-97.5332,0.0,20.0,1111122 
TCOON,ioos:station:TCOON:043:1,2014-09-13T12:30:00Z,27.8838,-97.5332,0.0,19.6,1111122 
TCOON,ioos:station:TCOON:043:1,2014-09-13T13:30:00Z,27.8838,-97.5332,0.0,18.7,1111122 
TCOON,ioos:station:TCOON:043:1,2014-09-13T14:30:00Z,27.8838,-97.5332,0.0,19.2,1111122 
TCOON,ioos:station:TCOON:043:1,2014-09-13T15:30:00Z,27.8838,-97.5332,0.0,19.5,1111122 
TCOON,ioos:station:TCOON:043:1,2014-09-13T16:30:00Z,27.8838,-97.5332,0.0,19.7,1111122 
TCOON,ioos:station:TCOON:043:1,2014-09-13T17:30:00Z,27.8838,-97.5332,0.0,19.8,1111122 
TCOON,ioos:station:TCOON:043:1,2014-09-13T19:00:00Z,27.8838,-97.5332,0.0,19.2,1111122 
TCOON,ioos:station:TCOON:043:1,2014-09-13T19:30:00Z,27.8838,-97.5332,0.0,19.7,1111122 
TCOON,ioos:station:TCOON:043:1,2014-09-13T20:30:00Z,27.8838,-97.5332,0.0,19.4,1111122 
TCOON,ioos:station:TCOON:043:1,2014-09-13T21:30:00Z,27.8838,-97.5332,0.0,19.8,1111122 
TCOON,ioos:station:TCOON:043:1,2014-09-13T22:30:00Z,27.8838,-97.5332,0.0,20.0,1111122 
TCOON,ioos:station:TCOON:043:1,2014-09-13T23:30:00Z,27.8838,-97.5332,0.0,19.9,1111122 
TCOON,ioos:station:TCOON:043:1,2014-09-14T00:30:00Z,27.8838,-97.5332,0.0,19.7,1111122 
TCOON,ioos:station:TCOON:043:1,2014-09-14T01:30:00Z,27.8838,-97.5332,0.0,18.1,1111122 
TCOON,ioos:station:TCOON:043:1,2014-09-14T02:30:00Z,27.8838,-97.5332,0.0,19.2,1111122 
TCOON,ioos:station:TCOON:043:1,2014-09-14T03:30:00Z,27.8838,-97.5332,0.0,19.2,1111122 
TCOON,ioos:station:TCOON:043:1,2014-09-14T04:30:00Z,27.8838,-97.5332,0.0,19.1,1111122 
TCOON,ioos:station:TCOON:043:1,2014-09-14T05:30:00Z,27.8838,-97.5332,0.0,18.1,1111122 
TCOON,ioos:station:TCOON:043:1,2014-09-14T06:30:00Z,27.8838,-97.5332,0.0,19.0,1111122 
TCOON,ioos:station:TCOON:043:1,2014-09-14T07:30:00Z,27.8838,-97.5332,0.0,18.6,1111122 
TCOON,ioos:station:TCOON:043:1,2014-09-14T08:30:00Z,27.8838,-97.5332,0.0,18.6,1111122 
TCOON,ioos:station:TCOON:043:1,2014-09-14T09:30:00Z,27.8838,-97.5332,0.0,19.1,1111122 
TCOON,ioos:station:TCOON:043:1,2014-09-14T10:30:00Z,27.8838,-97.5332,0.0,19.7,1111122 
TCOON,ioos:station:TCOON:043:1,2014-09-14T11:30:00Z,27.8838,-97.5332,0.0,26.6,1111122 
TCOON,ioos:station:TCOON:043:1,2014-09-14T12:30:00Z,27.8838,-97.5332,0.0,29.0,1111122 
TCOON,ioos:station:TCOON:043:1,2014-09-14T13:30:00Z,27.8838,-97.5332,0.0,28.2,1111122 
TCOON,ioos:station:TCOON:043:1,2014-09-14T14:30:00Z,27.8838,-97.5332,0.0,26.7,1111122 
TCOON,ioos:station:TCOON:043:1,2014-09-14T15:30:00Z,27.8838,-97.5332,0.0,27.0,1111122 
TCOON,ioos:station:TCOON:043:1,2014-09-14T16:30:00Z,27.8838,-97.5332,0.0,26.8,1111122 
TCOON,ioos:station:TCOON:043:1,2014-09-14T17:30:00Z,27.8838,-97.5332,0.0,26.2,1111122 
TCOON,ioos:station:TCOON:043:1,2014-09-14T18:30:00Z,27.8838,-97.5332,0.0,26.7,1111122 
TCOON,ioos:station:TCOON:043:1,2014-09-14T19:30:00Z,27.8838,-97.5332,0.0,27.1,1111122 
TCOON,ioos:station:TCOON:043:1,2014-09-14T20:30:00Z,27.8838,-97.5332,0.0,22.8,1111122 
TCOON,ioos:station:TCOON:043:1,2014-09-14T21:30:00Z,27.8838,-97.5332,0.0,20.7,1111122 
TCOON,ioos:station:TCOON:043:1,2014-09-14T22:30:00Z,27.8838,-97.5332,0.0,18.7,1111122 
TCOON,ioos:station:TCOON:043:1,2014-09-14T23:30:00Z,27.8838,-97.5332,0.0,18.2,1111122 
TCOON,ioos:station:TCOON:043:1,2014-09-15T00:30:00Z,27.8838,-97.5332,0.0,18.2,1111122 
TCOON,ioos:station:TCOON:043:1,2014-09-15T01:30:00Z,27.8838,-97.5332,0.0,17.0,1111122 
TCOON,ioos:station:TCOON:043:1,2014-09-15T02:30:00Z,27.8838,-97.5332,0.0,17.4,1111122 
TCOON,ioos:station:TCOON:043:1,2014-09-15T03:30:00Z,27.8838,-97.5332,0.0,16.8,1111122 
TCOON,ioos:station:TCOON:043:1,2014-09-15T04:30:00Z,27.8838,-97.5332,0.0,17.2,1111122 
TCOON,ioos:station:TCOON:043:1,2014-09-15T05:30:00Z,27.8838,-97.5332,0.0,17.3,1111122 
TCOON,ioos:station:TCOON:043:1,2014-09-15T07:30:00Z,27.8838,-97.5332,0.0,17.4,1111122 
TCOON,ioos:station:TCOON:043:1,2014-09-15T08:30:00Z,27.8838,-97.5332,0.0,17.0,1111122 
TCOON,ioos:station:TCOON:043:1,2014-09-15T09:30:00Z,27.8838,-97.5332,0.0,17.3,1111122 
TCOON,ioos:station:TCOON:043:1,2014-09-15T10:30:00Z,27.8838,-97.5332,0.0,17.3,1111122 
TCOON,ioos:station:TCOON:043:1,2014-09-15T11:30:00Z,27.8838,-97.5332,0.0,17.4,1111122 
TCOON,ioos:station:TCOON:043:1,2014-09-15T12:30:00Z,27.8838,-97.5332,0.0,17.6,1111122 
TCOON,ioos:station:TCOON:043:1,2014-09-15T13:30:00Z,27.8838,-97.5332,0.0,17.1,1111122 
TCOON,ioos:station:TCOON:043:1,2014-09-15T14:30:00Z,27.8838,-97.5332,0.0,17.2,1111122 
TCOON,ioos:station:TCOON:043:1,2014-09-15T15:30:00Z,27.8838,-97.5332,0.0,17.7,1111122 